{"data":{"norad_id":57442,"intl_designator":"2023-105N","name":"STARLINK-30146","alt_names":[],"object_type":"PAYLOAD","status":"ACTIVE","operator":null,"country":"US","launch_date":"2023-07-24","launch_site_code":"AFETR","launch_vehicle":null,"mission":null,"orbit_class":"UNKNOWN","rcs_meters":null,"size_class":null,"mass_kg":null,"dimensions":null,"purposes":["comms"],"wikipedia_slug":null,"has_3d_model":false,"image_url":null,"decayed_at":null,"tle_current":{"epoch":"2026-09-20T10:23:03.499296Z","epoch_age_seconds":133391,"freshness":"FRESH","line1":"1 57442U 23105N   26263.43267939 -.00000589  00000+0 -11899-4 0  9990","line2":"2 57442  43.0010 240.1798 0001154 269.9156  90.1563 15.27577221175424","mean_motion":15.27577221,"eccentricity":0.0001154,"inclination_deg":43.001,"raan_deg":240.1798,"arg_perigee_deg":269.9156,"mean_anomaly_deg":90.1563,"bstar":-1.1899e-5,"rev_number":17542,"period_min":94.266920205666,"perigee_km":482.26563554224,"apogee_km":483.84919921378,"semimajor_km":6861.194417378,"source":"CELESTRAK","updated_at":"2026-09-21T09:00:33.626586Z"}}}